Location: Agadir Mansour Mhndou
(31.2424°N, 8.7730°W)
Time: 06:08:34
(UTC+00:00)

Cosmos 2369 - Pass Details

Date: 16 October 2021
Orbit: 838 x 857 km, 71.0° (Epoch: 28 November)

Event Time Altitude Azimuth Distance (km) Brightness Sun altitude
Rises 18:38:54 0° 204° (SSW) 3,374 7.3 -8.6°
Reaches altitude 10° 18:41:20 10° 207° (SSW) 2,444 6.6 -9.2°
Maximum altitude 18:46:55 71° 290° (WNW) 887 4.0 -10.3°
Drops below altitude 10° 18:52:34 10° 15° (NNE) 2,466 5.9 -11.5°
Sets 18:55:02 0° 18° (NNE) 3,406 6.6 -12.1°
